User: anonymous   Login
Location: Caltech
(34.1382°N, 118.1253°W)
Time: 07:58:56
(UTC-07:00)
Language:

AO-Echo - Orbit

View from above orbital plane
View from above orbital plane
View from above satellite
View from above satellite

Ground track
Ground track

The orbit data is extracted from the following two-line orbital elements,

1 28375U 04025K   15185.38375116  .00000090  00000-0  39799-4 0  9990
2 28375 098.2929 125.3346 0081446 277.8599 081.3351 14.41675291578966
Epoch (UTC): 04 July 2015 09:12:36
Eccentricity: 0.0081446
inclination: 98.2929°
perigee height: 695 km
apogee height: 811 km
right ascension of ascending node: 125.3346°
argument of perigee: 277.8599°
revolutions per day: 14.41675291
mean anomaly at epoch: 81.3351°
orbit number at epoch: 57896

The dashed part of the orbit path shows where the satellite is in the earth's shadow,  

DLR